Topeka, KS

4:28 PM CST on January 18, 2018 (GMT -0600)
Billard Municipal

Weather History for KTOP - February, 2012

Change the Weather History Date:

Friday, February 10, 2012

  Actual Average Record
Temperature  
Mean Temperature 27 °F 33 °F  
Max Temperature 40 °F 43 °F 78 °F (1932)
Min Temperature 13 °F 22 °F -9 °F (2011)
Degree Days  
Heating Degree Days 38 32  
Month to date heating degree days 255 332  
Since 1 July heating degree days 2917 3442  
Cooling Degree Days 0 0  
Month to date cooling degree days 0 0  
Year to date cooling degree days 0 0  
Moisture  
Dew Point 16 °F    
Average Humidity 64    
Maximum Humidity 92    
Minimum Humidity 36    
Precipitation  
Precipitation T in 0.05 in 1.20 in (1898)
Month to date precipitation 1.36 0.43  
Year to date precipitation 1.38 1.29  
Snow  
Snow T in 0.10 in 4.40 in (1985)
Month to date snowfall T 1.8  
Year to date snowfall 0.1 6.7  
Since 1 July snowfall 0.2 13.2  
Snow Depth 0.00 in    
Sea Level Pressure  
Sea Level Pressure 30.27 in    
Wind  
Wind Speed 14 mph (NW)    
Max Wind Speed 25 mph    
Max Gust Speed 35 mph    
Visibility 10 miles    
Events      
T = Trace of Precipitation, MM = Missing Value Source: NWS Daily Summary

Daily Weather History Graph

Daily Weather History Graph

Search for Another Location

Airport or City:

Trip Planner

Search our weather history database for the weather conditions in past years. The results will help you decide how hot, cold, wet, or windy it might be!

Date:

Astronomy

Feb. 10, 2012 Rise Set
Actual Time 7:20 AM CST 5:53 PM CST
Civil Twilight 6:52 AM CST 6:21 PM CST
Nautical Twilight 6:21 AM CST 6:52 PM CST
Astronomical Twilight 5:50 AM CST 7:23 PM CST
Moon 9:30 PM CST (2/10) 8:31 AM CST (2/10)
Length of Visible Light 11h 28m
Length of Day
10h 33m
Waning Gibbous, 90% of the Moon is Illuminated
Feb 10
Waning Gibbous
Feb 14
Last Quarter
Feb 21
New
Feb 29
First Quarter
Mar 8
Full

Hourly Weather History & Observations

Time (CST) Temp. Windchill Dew Point Humidity Pressure Visibility Wind Dir Wind Speed Gust Speed Precip Events Conditions
12:53 AM 39.0 °F 33.4 °F 34.0 °F 82% 30.09 in 8.0 mi SW 8.1 mph - N/A   Overcast
1:53 AM 39.0 °F 35.7 °F 34.0 °F 82% 30.09 in 9.0 mi West 4.6 mph - N/A   Overcast
2:53 AM 37.9 °F 33.5 °F 34.0 °F 86% 30.08 in 10.0 mi West 5.8 mph - N/A   Overcast
3:22 AM 37.4 °F 31.4 °F 33.8 °F 87% 30.06 in 9.0 mi West 8.1 mph - N/A   Overcast
3:40 AM 37.4 °F 31.4 °F 33.8 °F 87% 30.06 in 8.0 mi West 8.1 mph - N/A   Mostly Cloudy
3:53 AM 36.0 °F 29.0 °F 33.1 °F 89% 30.07 in 8.0 mi West 9.2 mph - N/A   Mostly Cloudy
4:48 AM 33.8 °F 24.8 °F 26.6 °F 75% 30.07 in 9.0 mi NNW 12.7 mph - N/A   Scattered Clouds
4:53 AM 33.1 °F 24.9 °F 27.0 °F 78% 30.09 in 10.0 mi NNW 10.4 mph - N/A   Partly Cloudy
5:53 AM 30.9 °F 21.7 °F 24.1 °F 76% 30.13 in 10.0 mi NW 11.5 mph - N/A   Scattered Clouds
6:13 AM 30.2 °F 19.8 °F 24.8 °F 80% 30.12 in 10.0 mi NNW 13.8 mph 19.6 mph N/A   Mostly Cloudy
6:53 AM 30.9 °F 19.4 °F 24.1 °F 76% 30.17 in 10.0 mi North 17.3 mph 25.3 mph N/A   Overcast
7:53 AM 30.9 °F 19.4 °F 24.1 °F 76% 30.20 in 10.0 mi North 17.3 mph 23.0 mph N/A   Overcast
8:53 AM 27.0 °F 13.5 °F 19.0 °F 72% 30.24 in 10.0 mi NW 19.6 mph 26.5 mph N/A   Overcast
9:34 AM 26.6 °F 13.1 °F 15.8 °F 64% 30.23 in 10.0 mi NNW 19.6 mph 24.2 mph N/A   Overcast
9:53 AM 26.1 °F 14.0 °F 7.0 °F 44% 30.26 in 10.0 mi NNW 15.0 mph 27.6 mph N/A   Overcast
10:53 AM 28.0 °F 16.1 °F 9.0 °F 45% 30.29 in 10.0 mi North 16.1 mph 27.6 mph N/A   Clear
11:53 AM 28.9 °F 16.9 °F 10.0 °F 45% 30.30 in 10.0 mi NNW 17.3 mph 26.5 mph N/A   Clear
12:53 PM 30.0 °F 18.3 °F 9.0 °F 41% 30.30 in 10.0 mi NW 17.3 mph 27.6 mph N/A   Clear
1:53 PM 30.0 °F 16.9 °F 7.0 °F 38% 30.30 in 10.0 mi North 21.9 mph 29.9 mph N/A   Clear
2:53 PM 28.0 °F 14.9 °F 8.1 °F 43% 30.33 in 10.0 mi NNW 19.6 mph 29.9 mph N/A   Clear
3:53 PM 26.1 °F 11.6 °F 6.1 °F 43% 30.37 in 10.0 mi NW 21.9 mph 28.8 mph N/A   Clear
4:53 PM 24.1 °F 12.0 °F 3.9 °F 42% 30.40 in 10.0 mi North 13.8 mph 25.3 mph N/A   Clear
5:53 PM 21.0 °F 7.1 °F 1.9 °F 44% 30.43 in 10.0 mi North 16.1 mph 24.2 mph N/A   Clear
6:53 PM 18.0 °F 4.8 °F 3.0 °F 52% 30.47 in 10.0 mi North 12.7 mph - N/A   Clear
7:53 PM 17.1 °F 3.6 °F 3.9 °F 56% 30.50 in 10.0 mi NW 12.7 mph - N/A   Clear
8:53 PM 16.0 °F 1.1 °F 3.9 °F 59% 30.53 in 10.0 mi North 15.0 mph - N/A   Clear
9:53 PM 15.1 °F 1.8 °F 1.9 °F 56% 30.55 in 10.0 mi North 11.5 mph - N/A   Clear
10:53 PM 14.0 °F -0.2 °F 1.9 °F 59% 30.57 in 10.0 mi North 12.7 mph 24.2 mph N/A   Clear
11:53 PM 12.9 °F -1.6 °F 1.9 °F 62% 30.60 in 10.0 mi North 12.7 mph - N/A   Clear